Weather History for Douglas, WY

Change the Weather History Date:

Saturday, January 19, 2013

  Actual Average Record
Temperature  
Mean Temperature 38 °F 25 °F  
Max Temperature 52 °F 39 °F 57 °F (2003)
Min Temperature 23 °F 11 °F -2 °F (2007)
Degree Days  
Heating Degree Days 27 40  
Month to date heating degree days 802 762  
Since 1 July heating degree days 3523 3851  
Cooling Degree Days 0 0  
Month to date cooling degree days 0 0  
Year to date cooling degree days 0 0  
Moisture  
Dew Point 8 °F    
Average Humidity 35    
Maximum Humidity 55    
Minimum Humidity 14    
Precipitation  
Precipitation 0.00 in 0.01 in 0.03 in (2011)
Month to date precipitation T 0.19  
Year to date precipitation T 0.19  
Sea Level Pressure  
Sea Level Pressure 30.17 in    
Wind  
Wind Speed 9 mph (NW)    
Max Wind Speed 28 mph    
Max Gust Speed 35 mph    
Visibility 10 miles    
Events      
T = Trace of Precipitation, MM = Missing Value Source: NWS Daily Summary

Daily Weather History Graph

Daily Weather History Graph

Search for Another Location

Airport:

Trip Planner

Search our weather history database for the weather conditions in past years. The results will help you decide how hot, cold, wet, or windy it might be!

Date:

Astronomy

Jan. 19, 2013 Rise Set
Actual Time 7:26 AM MST 4:58 PM MST
Civil Twilight 6:55 AM MST 5:29 PM MST
Nautical Twilight 6:21 AM MST 6:03 PM MST
Astronomical Twilight 5:47 AM MST 6:37 PM MST
Moon 11:27 AM MST (1/19) 1:01 AM MST (1/19)
Length of Visible Light 10h 33m
Length of Day
9h 31m
First Quarter, 58% of the Moon is Illuminated
Jan 19
First Quarter
Jan 26
Full
Feb 3
Last Quarter
Feb 10
New
Feb 17
First Quarter

Hourly Weather History & Observations

Time (MST) Temp. Windchill Dew Point Humidity Pressure Visibility Wind Dir Wind Speed Gust Speed Precip Events Conditions
12:53 AM 39.0 °F 29.9 °F 8.1 °F 28% 30.00 in 10.0 mi NW 17.3 mph - N/A   Clear
1:53 AM 36.0 °F 27.1 °F 8.1 °F 31% 30.02 in 10.0 mi NW 13.8 mph - N/A   Clear
2:53 AM 33.1 °F 23.4 °F 9.0 °F 37% 30.06 in 10.0 mi NNW 13.8 mph - N/A   Clear
3:53 AM 30.9 °F 22.2 °F 8.1 °F 38% 30.10 in 10.0 mi NNW 10.4 mph - N/A   Clear
4:53 AM 30.0 °F 25.2 °F 8.1 °F 40% 30.15 in 10.0 mi NW 4.6 mph - N/A   Clear
5:53 AM 27.0 °F 19.5 °F 8.1 °F 45% 30.21 in 10.0 mi North 6.9 mph - N/A   Clear
6:53 AM 23.0 °F 13.9 °F 7.0 °F 50% 30.22 in 10.0 mi North 8.1 mph - N/A   Clear
7:53 AM 26.1 °F 20.5 °F 8.1 °F 47% 30.24 in 10.0 mi NW 4.6 mph - N/A   Clear
8:53 AM 30.0 °F - 10.0 °F 43% 30.23 in 10.0 mi Calm Calm - N/A   Clear
9:53 AM 41.0 °F 35.8 °F 9.0 °F 27% 30.22 in 10.0 mi NNW 8.1 mph - N/A   Clear
10:53 AM 46.9 °F - 6.1 °F 19% 30.17 in 10.0 mi West 25.3 mph 31.1 mph N/A   Clear
11:53 AM 50.0 °F - 5.0 °F 16% 30.14 in 10.0 mi NW 21.9 mph 27.6 mph N/A   Clear
12:53 PM 51.1 °F - 5.0 °F 15% 30.12 in 10.0 mi WNW 20.7 mph 29.9 mph N/A   Clear
1:53 PM 52.0 °F - 5.0 °F 15% 30.13 in 10.0 mi NW 18.4 mph 23.0 mph N/A   Clear
2:53 PM 51.1 °F - 3.9 °F 15% 30.15 in 10.0 mi WNW 11.5 mph - N/A   Clear
3:53 PM 48.0 °F - 5.0 °F 17% 30.17 in 10.0 mi WNW 12.7 mph - N/A   Clear
4:53 PM 37.0 °F - 5.0 °F 26% 30.24 in 10.0 mi Calm Calm - N/A   Clear
5:53 PM 34.0 °F 26.6 °F 8.1 °F 34% 30.26 in 10.0 mi West 9.2 mph - N/A   Clear
6:53 PM 37.9 °F 30.9 °F 8.1 °F 29% 30.25 in 10.0 mi WSW 10.4 mph 18.4 mph N/A   Clear
7:53 PM 30.9 °F 25.2 °F 10.0 °F 42% 30.26 in 10.0 mi East 5.8 mph - N/A   Clear
8:53 PM 30.0 °F 26.5 °F 10.0 °F 43% 30.24 in 10.0 mi ESE 3.5 mph - N/A   Clear
9:53 PM 26.1 °F - 10.9 °F 53% 30.20 in 10.0 mi Calm Calm - N/A   Clear
10:53 PM 26.1 °F - 12.0 °F 55% 30.17 in 10.0 mi Calm Calm - N/A   Clear
11:53 PM 25.0 °F - 10.9 °F 55% 30.14 in 10.0 mi Calm Calm - N/A   Clear